When you browse on this site, cookies collect data to enhance your experience and personalize the content and advertising you see.
Visit our Privacy Policy to learn more. By continuing to use the site, you agree to this use of cookies and data.
  • In Latvia
  • List of Countries
  • For 7 days
  • Water Temperature
  • Weather Map
  • Weather Widgets
  • user-avatar
    Login

    Hourly Weather Roma

    Today, 21 September, Saturday

    Time Temperature Precipitation Wind Pressure Humidity
    00:00 +15°C° 0 mm 1 mps 626 mmHg 33%
    01:00 +15°C° 0 mm 1 mps 626 mmHg 33%
    02:00 +14°C° 0 mm 2 mps 625 mmHg 36%
    03:00 +13°C° 0 mm 2 mps 625 mmHg 36%
    04:00 +13°C° 0 mm 2 mps 625 mmHg 37%
    05:00 +12°C° 0 mm 2 mps 625 mmHg 37%
    06:00 +15°C° 0 mm 2 mps 626 mmHg 31%
    07:00 +18°C° 0 mm 3 mps 627 mmHg 24%
    08:00 +21°C° 0 mm 3 mps 628 mmHg 17%
    09:00 +23°C° 0 mm 5 mps 628 mmHg 16%
    10:00 +26°C° 0 mm 7 mps 629 mmHg 14%
    11:00 +28°C° 0 mm 8 mps 629 mmHg 12%
    12:00 +29°C° 0 mm 9 mps 628 mmHg 12%
    13:00 +29°C° 0 mm 9 mps 628 mmHg 12%
    14:00 +31°C° 0 mm 10 mps 627 mmHg 11%
    15:00 +29°C° 0 mm 9 mps 627 mmHg 12%
    16:00 +29°C° 0 mm 9 mps 626 mmHg 13%
    17:00 +28°C° 0 mm 8 mps 626 mmHg 14%
    18:00 +26°C° 0 mm 6 mps 625 mmHg 16%
    19:00 +22°C° 0 mm 5 mps 624 mmHg 19%
    20:00 +20°C° 0 mm 3 mps 624 mmHg 22%
    21:00 +19°C° 0 mm 3 mps 623 mmHg 23%
    22:00 +17°C° 0 mm 2 mps 623 mmHg 25%
    23:00 +16°C° 0 mm 2 mps 623 mmHg 27%

    Tomorrow, 22 September, Sunday

    Time Temperature Precipitation Wind Pressure Humidity
    00:00 +15°C° 0 mm 2 mps 623 mmHg 29%
    01:00 +15°C° 0 mm 2 mps 622 mmHg 32%
    02:00 +14°C° 0 mm 2 mps 622 mmHg 34%
    03:00 +14°C° 0 mm 2 mps 622 mmHg 34%
    04:00 +12°C° 0 mm 3 mps 622 mmHg 35%
    05:00 +12°C° 0 mm 3 mps 622 mmHg 35%
    06:00 +14°C° 0 mm 4 mps 623 mmHg 32%
    07:00 +16°C° 0 mm 5 mps 624 mmHg 28%
    08:00 +20°C° 0 mm 6 mps 625 mmHg 25%
    09:00 +22°C° 0 mm 7 mps 625 mmHg 22%
    10:00 +24°C° 0 mm 8 mps 625 mmHg 20%
    11:00 +27°C° 0 mm 9 mps 626 mmHg 17%
    12:00 +27°C° 0 mm 10 mps 626 mmHg 15%
    13:00 +28°C° 0 mm 10 mps 625 mmHg 13%
    14:00 +29°C° 0 mm 11 mps 625 mmHg 11%
    15:00 +28°C° 0 mm 10 mps 625 mmHg 11%
    16:00 +28°C° 0 mm 9 mps 625 mmHg 12%
    17:00 +27°C° 0 mm 8 mps 626 mmHg 12%
    18:00 +22°C° 0 mm 7 mps 625 mmHg 24%
    19:00 +19°C° 0 mm 5 mps 625 mmHg 35%
    20:00 +14°C° 0 mm 3 mps 624 mmHg 47%
    21:00 +14°C° 0 mm 2 mps 625 mmHg 52%
    22:00 +13°C° 0 mm 2 mps 625 mmHg 57%
    23:00 +12°C° 0 mm 2 mps 625 mmHg 63%

    Day after tomorrow, 23 September, Monday

    Time Temperature Precipitation Wind Pressure Humidity
    00:00 +10°C° 0 mm 2 mps 625 mmHg 66%
    01:00 +10°C° 0 mm 2 mps 625 mmHg 70%
    02:00 +9°C° 0 mm 2 mps 625 mmHg 74%
    03:00 +9°C° 0 mm 2 mps 625 mmHg 74%
    04:00 +8°C° 0 mm 2 mps 625 mmHg 75%
    05:00 +9°C° 0 mm 1 mps 625 mmHg 75%
    06:00 +12°C° 0 mm 1 mps 626 mmHg 66%
    07:00 +14°C° 0 mm 1 mps 627 mmHg 56%
    08:00 +16°C° 0 mm 1 mps 628 mmHg 47%
    09:00 +19°C° 0 mm 2 mps 628 mmHg 39%
    10:00 +22°C° 0 mm 4 mps 629 mmHg 31%
    11:00 +26°C° 0 mm 5 mps 630 mmHg 23%
    12:00 +27°C° 0 mm 6 mps 629 mmHg 23%
    13:00 +27°C° 0 mm 7 mps 629 mmHg 23%
    14:00 +28°C° 0 mm 8 mps 628 mmHg 23%
    15:00 +26°C° 0.1 mm 8 mps 628 mmHg 26%
    16:00 +24°C° 0.1 mm 7 mps 628 mmHg 30%
    17:00 +22°C° 0.1 mm 6 mps 627 mmHg 33%
    18:00 +20°C° 0.4 mm 5 mps 627 mmHg 42%
    19:00 +18°C° 0.4 mm 4 mps 628 mmHg 51%
    20:00 +16°C° 0.4 mm 2 mps 628 mmHg 60%
    21:00 +15°C° 0 mm 2 mps 628 mmHg 63%
    22:00 +14°C° 0 mm 2 mps 628 mmHg 65%
    23:00 +13°C° 0 mm 2 mps 628 mmHg 68%

    24 September, Tuesday

    Time Temperature Precipitation Wind Pressure Humidity
    00:00 +13°C° 0 mm 2 mps 627 mmHg 71%
    01:00 +11°C° 0 mm 3 mps 627 mmHg 75%
    02:00 +11°C° 0 mm 3 mps 627 mmHg 78%
    03:00 +10°C° 0 mm 2 mps 626 mmHg 81%
    04:00 +9°C° 0 mm 2 mps 626 mmHg 84%
    05:00 +9°C° 0 mm 1 mps 626 mmHg 87%
    06:00 +10°C° 0 mm 2 mps 627 mmHg 78%
    07:00 +13°C° 0 mm 2 mps 628 mmHg 68%
    08:00 +16°C° 0 mm 2 mps 629 mmHg 59%
    09:00 +17°C° 0 mm 3 mps 629 mmHg 52%
    10:00 +19°C° 0 mm 3 mps 629 mmHg 45%
    11:00 +20°C° 0 mm 3 mps 629 mmHg 38%
    12:00 +21°C° 0 mm 4 mps 629 mmHg 33%
    13:00 +23°C° 0 mm 4 mps 629 mmHg 29%
    14:00 +25°C° 0 mm 4 mps 628 mmHg 24%
    15:00 +23°C° 0 mm 5 mps 628 mmHg 25%
    16:00 +23°C° 0 mm 5 mps 628 mmHg 26%
    17:00 +23°C° 0 mm 5 mps 628 mmHg 26%
    18:00 +20°C° 0 mm 4 mps 628 mmHg 33%
    19:00 +18°C° 0 mm 3 mps 628 mmHg 40%
    20:00 +16°C° 0 mm 2 mps 628 mmHg 47%
    21:00 +14°C° 0 mm 2 mps 628 mmHg 55%
    22:00 +13°C° 0 mm 2 mps 628 mmHg 63%
    23:00 +12°C° 0 mm 2 mps 628 mmHg 70%

    25 September, Wednesday

    Time Temperature Precipitation Wind Pressure Humidity
    00:00 +10°C° 0 mm 2 mps 628 mmHg 74%
    01:00 +9°C° 0 mm 2 mps 628 mmHg 78%
    02:00 +8°C° 0 mm 2 mps 628 mmHg 81%
    03:00 +8°C° 0 mm 2 mps 628 mmHg 83%
    04:00 +7°C° 0 mm 2 mps 628 mmHg 84%
    05:00 +7°C° 0 mm 2 mps 628 mmHg 85%
    06:00 +9°C° 0 mm 2 mps 629 mmHg 76%
    07:00 +12°C° 0 mm 2 mps 630 mmHg 66%
    08:00 +14°C° 0 mm 2 mps 631 mmHg 57%
    09:00 +16°C° 0 mm 2 mps 632 mmHg 48%
    10:00 +18°C° 0 mm 2 mps 632 mmHg 40%
    11:00 +22°C° 0 mm 1 mps 633 mmHg 31%
    12:00 +23°C° 0 mm 2 mps 633 mmHg 26%
    13:00 +24°C° 0 mm 2 mps 633 mmHg 22%
    14:00 +25°C° 0 mm 3 mps 633 mmHg 17%
    15:00 +25°C° 0 mm 3 mps 632 mmHg 18%
    16:00 +23°C° 0 mm 4 mps 632 mmHg 19%
    17:00 +23°C° 0 mm 4 mps 632 mmHg 20%
    18:00 +20°C° 0 mm 4 mps 632 mmHg 28%
    19:00 +16°C° 0 mm 5 mps 631 mmHg 36%
    20:00 +13°C° 0 mm 5 mps 631 mmHg 44%
    21:00 +12°C° 0 mm 3 mps 631 mmHg 51%
    22:00 +10°C° 0 mm 2 mps 631 mmHg 58%
    23:00 +10°C° 0 mm 1 mps 630 mmHg 65%

    26 September, Thursday

    Time Temperature Precipitation Wind Pressure Humidity
    00:00 +9°C° 0 mm 1 mps 630 mmHg 68%
    01:00 +9°C° 0 mm 1 mps 630 mmHg 71%
    02:00 +8°C° 0 mm 1 mps 630 mmHg 73%
    03:00 +8°C° 0 mm 1 mps 629 mmHg 75%
    04:00 +8°C° 0 mm 1 mps 629 mmHg 76%
    05:00 +6°C° 0 mm 0 mps 629 mmHg 77%
    06:00 +9°C° 0 mm 1 mps 630 mmHg 68%
    07:00 +11°C° 0 mm 1 mps 631 mmHg 60%
    08:00 +13°C° 0 mm 1 mps 632 mmHg 51%
    09:00 +15°C° 0 mm 2 mps 632 mmHg 43%
    10:00 +17°C° 0 mm 2 mps 632 mmHg 36%
    11:00 +19°C° 0 mm 2 mps 632 mmHg 28%
    12:00 +21°C° 0 mm 3 mps 632 mmHg 26%
    13:00 +22°C° 0 mm 3 mps 632 mmHg 24%
    14:00 +25°C° 0 mm 3 mps 632 mmHg 21%
    15:00 +25°C° 0 mm 3 mps 631 mmHg 21%
    16:00 +24°C° 0 mm 3 mps 631 mmHg 21%
    17:00 +24°C° 0 mm 3 mps 631 mmHg 21%
    18:00 +20°C° 0 mm 2 mps 630 mmHg 24%
    19:00 +17°C° 0 mm 2 mps 630 mmHg 27%
    20:00 +14°C° 0 mm 2 mps 629 mmHg 30%
    21:00 +14°C° 0 mm 2 mps 629 mmHg 31%
    22:00 +13°C° 0 mm 2 mps 629 mmHg 31%
    23:00 +12°C° 0 mm 1 mps 629 mmHg 32%
    Show more